Time,TemperatureF,DewpointF,PressureIn,WindDirection,WindDirectionDegrees,WindSpeedMPH,WindSpeedGustMPH,Humidity,HourlyPrecipIn,Conditions,Clouds,dailyrainin,SoftwareType,DateUTC
2013-02-24 00:01:00,29.0,26.0,29.99,NW,321,5.0,6.0,89,0.00,,,0.00,,2013-02-24 05:01:00,
2013-02-24 00:11:00,29.0,26.0,29.99,NW,318,2.0,5.0,90,0.00,,,0.00,,2013-02-24 05:11:00,
2013-02-24 00:22:00,29.0,26.0,29.99,NW,318,2.0,5.0,90,0.00,,,0.00,,2013-02-24 05:22:00,
2013-02-24 00:32:00,28.0,25.0,29.99,NW,315,5.0,8.0,89,0.00,,,0.00,,2013-02-24 05:32:00,
2013-02-24 00:42:00,28.0,25.0,29.99,NW,325,6.0,7.0,88,0.00,,,0.00,,2013-02-24 05:42:00,
2013-02-24 00:52:00,28.0,25.0,29.99,NW,325,6.0,7.0,88,0.00,,,0.00,,2013-02-24 05:52:00,
2013-02-24 01:01:00,28.0,25.0,30.00,NNW,332,3.0,5.0,89,0.00,,,0.00,,2013-02-24 06:01:00,
2013-02-24 01:11:00,28.0,25.0,30.00,NNW,332,3.0,5.0,89,0.00,,,0.00,,2013-02-24 06:11:00,
2013-02-24 01:21:00,28.0,25.0,30.00,NNW,327,5.0,6.0,90,0.00,,,0.00,,2013-02-24 06:21:00,
2013-02-24 01:32:00,27.0,25.0,30.00,NW,320,5.0,7.0,91,0.00,,,0.00,,2013-02-24 06:32:00,
2013-02-24 01:42:00,27.0,25.0,30.00,NW,320,5.0,7.0,91,0.00,,,0.00,,2013-02-24 06:42:00,
2013-02-24 01:52:00,27.0,24.0,30.01,WNW,301,3.0,6.0,90,0.00,,,0.00,,2013-02-24 06:52:00,
2013-02-24 02:01:00,27.0,24.0,30.02,NW,322,5.0,9.0,90,0.00,,,0.00,,2013-02-24 07:01:00,
2013-02-24 02:12:00,27.0,24.0,30.02,NW,322,5.0,9.0,90,0.00,,,0.00,,2013-02-24 07:12:00,
2013-02-24 02:21:00,26.0,24.0,30.02,NW,322,5.0,5.0,91,0.00,,,0.00,,2013-02-24 07:21:00,
2013-02-24 02:32:00,26.0,24.0,30.01,NW,323,3.0,7.0,92,0.00,,,0.00,,2013-02-24 07:32:00,
2013-02-24 02:42:00,26.0,24.0,30.01,NW,323,3.0,7.0,92,0.00,,,0.00,,2013-02-24 07:42:00,
2013-02-24 02:52:00,26.0,24.0,30.01,NW,324,5.0,7.0,92,0.00,,,0.00,,2013-02-24 07:52:00,
2013-02-24 03:01:00,26.0,23.0,30.01,NW,317,6.0,7.0,90,0.00,,,0.00,,2013-02-24 08:01:00,
2013-02-24 03:11:00,26.0,24.0,30.01,NW,321,5.0,7.0,91,0.00,,,0.00,,2013-02-24 08:11:00,
2013-02-24 03:22:00,26.0,24.0,30.01,NW,321,5.0,7.0,91,0.00,,,0.00,,2013-02-24 08:22:00,
2013-02-24 03:32:00,26.0,24.0,30.03,WNW,292,3.0,5.0,92,0.00,,,0.00,,2013-02-24 08:32:00,
2013-02-24 03:42:00,26.0,24.0,30.03,WNW,292,3.0,5.0,92,0.00,,,0.00,,2013-02-24 08:42:00,
2013-02-24 03:53:00,26.0,24.0,30.03,NW,308,6.0,8.0,91,0.00,,,0.00,,2013-02-24 08:53:00,
2013-02-24 04:01:00,26.0,24.0,30.01,NNW,348,2.0,5.0,91,0.00,,,0.00,,2013-02-24 09:01:00,
2013-02-24 04:11:00,26.0,24.0,30.01,NNW,348,2.0,5.0,91,0.00,,,0.00,,2013-02-24 09:11:00,
2013-02-24 04:21:00,26.0,24.0,30.03,NNW,346,1.0,2.0,92,0.00,,,0.00,,2013-02-24 09:21:00,
2013-02-24 04:31:00,26.0,24.0,30.03,NW,318,6.0,9.0,92,0.00,,,0.00,,2013-02-24 09:31:00,
2013-02-24 04:42:00,26.0,24.0,30.03,NW,318,6.0,9.0,92,0.00,,,0.00,,2013-02-24 09:42:00,
2013-02-24 04:52:00,26.0,23.0,30.03,NNW,327,5.0,7.0,90,0.00,,,0.00,,2013-02-24 09:52:00,
2013-02-24 05:01:00,26.0,24.0,30.04,NW,324,3.0,7.0,91,0.00,,,0.00,,2013-02-24 10:01:00,
2013-02-24 05:11:00,26.0,24.0,30.03,NNW,335,2.0,5.0,91,0.00,,,0.00,,2013-02-24 10:11:00,
2013-02-24 05:21:00,26.0,24.0,30.03,NNW,335,2.0,5.0,91,0.00,,,0.00,,2013-02-24 10:21:00,
2013-02-24 05:32:00,26.0,24.0,30.04,NW,307,2.0,2.0,91,0.00,,,0.00,,2013-02-24 10:32:00,
2013-02-24 05:41:00,26.0,24.0,30.04,NW,307,2.0,2.0,91,0.00,,,0.00,,2013-02-24 10:41:00,
2013-02-24 05:52:00,26.0,24.0,30.05,NW,306,0.0,0.0,91,0.00,,,0.00,,2013-02-24 10:52:00,
2013-02-24 06:01:00,25.0,23.0,30.06,NW,306,0.0,0.0,92,0.00,,,0.00,,2013-02-24 11:01:00,
2013-02-24 06:11:00,25.0,23.0,30.06,NW,306,0.0,0.0,92,0.00,,,0.00,,2013-02-24 11:11:00,
2013-02-24 06:22:00,25.0,23.0,30.06,NW,306,0.0,0.0,92,0.00,,,0.00,,2013-02-24 11:22:00,
2013-02-24 06:32:00,25.0,23.0,30.07,NW,306,0.0,0.0,93,0.00,,,0.00,,2013-02-24 11:32:00,
2013-02-24 06:42:00,25.0,23.0,30.07,NW,306,0.0,0.0,93,0.00,,,0.00,,2013-02-24 11:42:00,
2013-02-24 06:53:00,24.0,22.0,30.07,NW,306,0.0,0.0,93,0.00,,,0.00,,2013-02-24 11:53:00,
2013-02-24 07:01:00,24.0,23.0,30.07,NW,306,0.0,0.0,94,0.00,,,0.00,,2013-02-24 12:01:00,
2013-02-24 07:11:00,24.0,23.0,30.07,NW,306,0.0,0.0,94,0.00,,,0.00,,2013-02-24 12:11:00,
2013-02-24 07:22:00,24.0,23.0,30.07,NW,306,0.0,0.0,95,0.00,,,0.00,,2013-02-24 12:22:00,
2013-02-24 07:32:00,24.0,23.0,30.08,NW,306,0.0,0.0,95,0.00,,,0.00,,2013-02-24 12:32:00,
2013-02-24 07:46:00,24.0,23.0,30.08,NW,306,0.0,0.0,95,0.00,,,0.00,,2013-02-24 12:46:00,
2013-02-24 07:57:00,24.0,23.0,30.09,NW,306,0.0,0.0,95,0.00,,,0.00,,2013-02-24 12:57:00,
2013-02-24 08:17:00,24.0,23.0,30.10,SSW,199,1.0,2.0,95,0.00,,,0.00,,2013-02-24 13:17:00,
2013-02-24 08:26:00,24.0,23.0,30.10,SSW,199,1.0,2.0,95,0.00,,,0.00,,2013-02-24 13:26:00,
2013-02-24 08:34:00,24.0,23.0,30.11,WSW,241,0.0,0.0,95,0.00,,,0.00,,2013-02-24 13:34:00,
2013-02-24 08:44:00,24.0,23.0,30.11,WSW,241,0.0,0.0,95,0.00,,,0.00,,2013-02-24 13:44:00,
2013-02-24 08:55:00,25.0,24.0,30.11,WSW,258,1.0,2.0,95,0.00,,,0.00,,2013-02-24 13:55:00,
2013-02-24 09:04:00,26.0,25.0,30.12,WSW,256,0.0,0.0,95,0.00,,,0.00,,2013-02-24 14:04:00,
2013-02-24 09:14:00,26.0,25.0,30.12,West,267,0.0,3.0,94,0.00,,,0.00,,2013-02-24 14:14:00,
2013-02-24 09:25:00,26.0,25.0,30.12,West,267,0.0,3.0,94,0.00,,,0.00,,2013-02-24 14:25:00,
2013-02-24 09:34:00,27.0,24.0,30.12,WSW,258,0.0,3.0,90,0.00,,,0.00,,2013-02-24 14:34:00,
2013-02-24 09:54:00,27.0,24.0,30.13,NNW,343,0.0,0.0,89,0.00,,,0.00,,2013-02-24 14:54:00,
2013-02-24 10:03:00,28.0,24.0,30.13,North,356,0.0,0.0,86,0.00,,,0.00,,2013-02-24 15:03:00,
2013-02-24 10:13:00,29.0,24.0,30.14,NNW,336,0.0,2.0,82,0.00,,,0.00,,2013-02-24 15:13:00,
2013-02-24 10:23:00,29.0,24.0,30.14,NNW,336,0.0,2.0,82,0.00,,,0.00,,2013-02-24 15:23:00,
2013-02-24 10:32:00,29.0,24.0,30.14,NW,323,2.0,3.0,82,0.00,,,0.00,,2013-02-24 15:32:00,
2013-02-24 10:42:00,29.0,24.0,30.14,NW,323,2.0,3.0,82,0.00,,,0.00,,2013-02-24 15:42:00,
2013-02-24 10:53:00,29.0,23.0,30.14,NNW,328,6.0,7.0,78,0.00,,,0.00,,2013-02-24 15:53:00,
2013-02-24 11:01:00,30.0,24.0,30.14,NNW,346,0.0,0.0,79,0.00,,,0.00,,2013-02-24 16:01:00,
2013-02-24 11:11:00,30.0,23.0,30.15,NNW,332,1.0,1.0,76,0.00,,,0.00,,2013-02-24 16:11:00,
2013-02-24 11:21:00,30.0,23.0,30.15,NNW,332,1.0,1.0,76,0.00,,,0.00,,2013-02-24 16:21:00,
2013-02-24 11:32:00,31.0,24.0,30.15,NW,315,2.0,5.0,74,0.00,,,0.00,,2013-02-24 16:32:00,
2013-02-24 11:42:00,31.0,24.0,30.15,NW,315,2.0,5.0,74,0.00,,,0.00,,2013-02-24 16:42:00,
2013-02-24 11:52:00,31.0,23.0,30.15,NW,304,3.0,3.0,73,0.00,,,0.00,,2013-02-24 16:52:00,
2013-02-24 12:01:00,33.0,25.0,30.15,NNW,346,1.0,0.0,71,0.00,,,0.00,,2013-02-24 17:01:00,
2013-02-24 12:11:00,33.0,25.0,30.15,NNW,346,1.0,0.0,71,0.00,,,0.00,,2013-02-24 17:11:00,
2013-02-24 12:21:00,34.0,25.0,30.15,North,3,2.0,2.0,70,0.00,,,0.00,,2013-02-24 17:21:00,
2013-02-24 12:32:00,34.0,25.0,30.15,North,1,0.0,1.0,70,0.00,,,0.00,,2013-02-24 17:32:00,
2013-02-24 12:42:00,34.0,25.0,30.15,North,1,0.0,1.0,70,0.00,,,0.00,,2013-02-24 17:42:00,
2013-02-24 12:53:00,35.0,25.0,30.14,North,4,0.0,0.0,66,0.00,,,0.00,,2013-02-24 17:53:00,
2013-02-24 13:02:00,35.0,25.0,30.14,NNW,347,1.0,1.0,66,0.00,,,0.00,,2013-02-24 18:02:00,
2013-02-24 13:11:00,35.0,25.0,30.14,NNW,347,1.0,1.0,66,0.00,,,0.00,,2013-02-24 18:11:00,
2013-02-24 13:22:00,36.0,26.0,30.14,NNW,343,0.0,0.0,66,0.00,,,0.00,,2013-02-24 18:22:00,
2013-02-24 13:32:00,36.0,26.0,30.13,NNW,332,2.0,3.0,66,0.00,,,0.00,,2013-02-24 18:32:00,
2013-02-24 13:42:00,36.0,26.0,30.13,NNW,332,2.0,3.0,66,0.00,,,0.00,,2013-02-24 18:42:00,
2013-02-24 13:52:00,37.0,26.0,30.13,NNW,333,1.0,6.0,64,0.00,,,0.00,,2013-02-24 18:52:00,
2013-02-24 14:01:00,37.0,26.0,30.12,NNW,339,2.0,5.0,63,0.00,,,0.00,,2013-02-24 19:01:00,
2013-02-24 14:11:00,37.0,26.0,30.12,NNW,339,2.0,5.0,63,0.00,,,0.00,,2013-02-24 19:11:00,
2013-02-24 14:22:00,38.0,26.0,30.12,WNW,287,0.0,0.0,62,0.00,,,0.00,,2013-02-24 19:22:00,
2013-02-24 14:32:00,39.0,27.0,30.12,NW,326,0.0,1.0,62,0.00,,,0.00,,2013-02-24 19:32:00,
2013-02-24 14:42:00,39.0,27.0,30.12,NW,326,0.0,1.0,62,0.00,,,0.00,,2013-02-24 19:42:00,
2013-02-24 14:52:00,39.0,27.0,30.11,NW,320,1.0,3.0,61,0.00,,,0.00,,2013-02-24 19:52:00,
2013-02-24 15:02:00,40.0,28.0,30.11,WSW,253,0.0,0.0,61,0.00,,,0.00,,2013-02-24 20:02:00,
2013-02-24 15:11:00,40.0,28.0,30.11,WSW,253,0.0,0.0,61,0.00,,,0.00,,2013-02-24 20:11:00,
2013-02-24 15:21:00,40.0,28.0,30.11,NNW,341,2.0,3.0,61,0.00,,,0.00,,2013-02-24 20:21:00,
2013-02-24 15:32:00,40.0,27.0,30.11,NNW,333,2.0,5.0,60,0.00,,,0.00,,2013-02-24 20:32:00,
2013-02-24 15:42:00,40.0,27.0,30.11,NNW,333,2.0,5.0,60,0.00,,,0.00,,2013-02-24 20:42:00,
2013-02-24 15:52:00,41.0,28.0,30.11,NW,318,0.0,0.0,60,0.00,,,0.00,,2013-02-24 20:52:00,
2013-02-24 16:02:00,41.0,29.0,30.11,East,97,0.0,0.0,61,0.00,,,0.00,,2013-02-24 21:02:00,
2013-02-24 16:11:00,41.0,29.0,30.11,East,97,0.0,0.0,61,0.00,,,0.00,,2013-02-24 21:11:00,
2013-02-24 16:21:00,41.0,28.0,30.11,NW,318,3.0,3.0,60,0.00,,,0.00,,2013-02-24 21:21:00,
2013-02-24 16:32:00,41.0,28.0,30.11,North,352,0.0,0.0,60,0.00,,,0.00,,2013-02-24 21:32:00,
2013-02-24 16:42:00,41.0,28.0,30.11,North,352,0.0,0.0,60,0.00,,,0.00,,2013-02-24 21:42:00,
2013-02-24 16:52:00,42.0,30.0,30.12,North,10,0.0,0.0,61,0.00,,,0.00,,2013-02-24 21:52:00,
2013-02-24 17:01:00,42.0,30.0,30.12,NE,46,0.0,3.0,61,0.00,,,0.00,,2013-02-24 22:01:00,
2013-02-24 17:11:00,42.0,30.0,30.12,NE,46,0.0,3.0,61,0.00,,,0.00,,2013-02-24 22:11:00,
2013-02-24 17:21:00,42.0,30.0,30.12,NNE,27,0.0,1.0,61,0.00,,,0.00,,2013-02-24 22:21:00,
2013-02-24 17:32:00,42.0,30.0,30.11,NNE,30,1.0,1.0,62,0.00,,,0.00,,2013-02-24 22:32:00,
2013-02-24 17:42:00,42.0,30.0,30.11,NNE,30,1.0,1.0,62,0.00,,,0.00,,2013-02-24 22:42:00,
2013-02-24 17:52:00,42.0,30.0,30.11,North,357,0.0,0.0,61,0.00,,,0.00,,2013-02-24 22:52:00,
2013-02-24 18:02:00,41.0,29.0,30.11,NNE,20,0.0,0.0,63,0.00,,,0.00,,2013-02-24 23:02:00,
2013-02-24 18:11:00,41.0,29.0,30.11,NNE,20,0.0,0.0,63,0.00,,,0.00,,2013-02-24 23:11:00,
2013-02-24 18:21:00,40.0,29.0,30.11,NNE,24,2.0,3.0,65,0.00,,,0.00,,2013-02-24 23:21:00,
2013-02-24 18:32:00,40.0,30.0,30.12,NE,41,0.0,0.0,67,0.00,,,0.00,,2013-02-24 23:32:00,
2013-02-24 18:42:00,40.0,30.0,30.12,NE,41,0.0,0.0,67,0.00,,,0.00,,2013-02-24 23:42:00,
2013-02-24 18:52:00,39.0,29.0,30.12,North,8,0.0,0.0,68,0.00,,,0.00,,2013-02-24 23:52:00,
2013-02-24 19:01:00,38.0,28.0,30.12,North,8,0.0,0.0,68,0.00,,,0.00,,2013-02-25 00:01:00,
2013-02-24 19:11:00,38.0,28.0,30.12,North,8,0.0,0.0,68,0.00,,,0.00,,2013-02-25 00:11:00,
2013-02-24 19:21:00,38.0,29.0,30.12,North,6,0.0,0.0,69,0.00,,,0.00,,2013-02-25 00:21:00,
2013-02-24 19:32:00,38.0,29.0,30.13,North,6,0.0,0.0,69,0.00,,,0.00,,2013-02-25 00:32:00,
2013-02-24 19:42:00,38.0,29.0,30.13,North,6,0.0,0.0,69,0.00,,,0.00,,2013-02-25 00:42:00,
2013-02-24 19:52:00,37.0,29.0,30.14,East,95,0.0,0.0,72,0.00,,,0.00,,2013-02-25 00:52:00,
2013-02-24 20:01:00,37.0,29.0,30.14,East,95,0.0,0.0,72,0.00,,,0.00,,2013-02-25 01:01:00,
2013-02-24 20:11:00,37.0,29.0,30.14,East,95,0.0,0.0,73,0.00,,,0.00,,2013-02-25 01:11:00,
2013-02-24 20:21:00,37.0,29.0,30.14,East,95,0.0,0.0,73,0.00,,,0.00,,2013-02-25 01:21:00,
2013-02-24 20:32:00,37.0,29.0,30.14,East,95,0.0,0.0,72,0.00,,,0.00,,2013-02-25 01:32:00,
2013-02-24 20:42:00,37.0,29.0,30.14,East,95,0.0,0.0,72,0.00,,,0.00,,2013-02-25 01:42:00,
2013-02-24 20:52:00,37.0,29.0,30.14,East,95,0.0,0.0,73,0.00,,,0.00,,2013-02-25 01:52:00,
2013-02-24 21:01:00,36.0,29.0,30.15,East,95,0.0,0.0,75,0.00,,,0.00,,2013-02-25 02:01:00,
2013-02-24 21:11:00,36.0,29.0,30.15,East,95,0.0,0.0,75,0.00,,,0.00,,2013-02-25 02:11:00,
2013-02-24 21:21:00,36.0,29.0,30.15,East,95,0.0,0.0,75,0.00,,,0.00,,2013-02-25 02:21:00,
2013-02-24 21:32:00,35.0,28.0,30.15,East,95,0.0,0.0,76,0.00,,,0.00,,2013-02-25 02:32:00,
2013-02-24 21:42:00,35.0,28.0,30.15,East,95,0.0,0.0,76,0.00,,,0.00,,2013-02-25 02:42:00,
2013-02-24 21:52:00,35.0,28.0,30.15,East,95,0.0,0.0,76,0.00,,,0.00,,2013-02-25 02:52:00,
2013-02-24 22:01:00,35.0,29.0,30.14,East,95,0.0,0.0,77,0.00,,,0.00,,2013-02-25 03:01:00,
2013-02-24 22:11:00,35.0,29.0,30.14,East,95,0.0,0.0,77,0.00,,,0.00,,2013-02-25 03:11:00,
2013-02-24 22:21:00,34.0,28.0,30.14,East,95,0.0,0.0,79,0.00,,,0.00,,2013-02-25 03:21:00,
2013-02-24 22:32:00,34.0,28.0,30.15,East,95,0.0,0.0,80,0.00,,,0.00,,2013-02-25 03:32:00,
2013-02-24 22:42:00,34.0,28.0,30.15,East,95,0.0,0.0,80,0.00,,,0.00,,2013-02-25 03:42:00,
2013-02-24 22:51:00,33.0,28.0,30.14,East,95,0.0,0.0,82,0.00,,,0.00,,2013-02-25 03:51:00,
2013-02-24 23:02:00,32.0,28.0,30.15,East,95,0.0,0.0,84,0.00,,,0.00,,2013-02-25 04:02:00,
2013-02-24 23:11:00,32.0,28.0,30.15,East,95,0.0,0.0,84,0.00,,,0.00,,2013-02-25 04:11:00,
2013-02-24 23:21:00,32.0,28.0,30.14,NNE,17,2.0,2.0,85,0.00,,,0.00,,2013-02-25 04:21:00,
2013-02-24 23:32:00,32.0,28.0,30.14,NNE,33,0.0,0.0,85,0.00,,,0.00,,2013-02-25 04:32:00,
2013-02-24 23:42:00,32.0,28.0,30.14,NNE,33,0.0,0.0,85,0.00,,,0.00,,2013-02-25 04:42:00,
2013-02-24 23:52:00,32.0,28.0,30.14,NNE,20,2.0,3.0,86,0.00,,,0.00,,2013-02-25 04:52:00,